Voltar ao catálogo

STARLINK-31855

AtivoComunicaçõesVLEO
NORAD 59838·PAYLOAD·🇺🇸 United States

Lançado May 23, 2024 de Cape Canaveral Space Force Station

Loading…

Próximas Passagens (próximas 24 horas)

TLE

AtualizadoSource: CelesTrak SupGP

Época: Sep 14, 2026, 22:15 UTC

1 59838C 24097D   26257.92756944  .00021970  00000+0  79574-3 0  2573
2 59838  43.0025 285.3699 0001556 263.2745  16.3939 15.27567772    18

Acompanhe STARLINK-31855 em tempo real com AllMySat

Download on the App Store